Location: Big Meadows
(38.5260°N, 78.4400°W)
Time: 09:40:21
(UTC-04:00)

Amateur Radio Satellites - All Passes

Search period start: 28 September 2016 09:10
Search period end: 29 September 2016 09:10
Location: Big Meadows, 38.5260°N, 78.4400°W

Satellite Date Start Highest point End Downlink Frequencies (MHz)
Time Altitude Azimuth
NOAA 15 28 Sep 09:12:01 09:14:05 12° 300° (WNW) 09:16:10 137.62
FUNcube-1 28 Sep 09:12:01 09:13:17 11° 91° (E) 09:14:35 145.935
Cosmos 2499 28 Sep 09:16:49 09:23:56 67° 93° (E) 09:30:55 435.465 / 435.565
COMPASS 1 28 Sep 09:20:03 09:24:10 49° 99° (E) 09:28:14 437.405
UWE-3 28 Sep 09:23:26 09:27:09 27° 96° (E) 09:30:54 435.000/436.395/437.385
BEESAT 3 28 Sep 09:25:26 09:28:17 19° 48° (NE) 09:31:08 437.485
Cubesat XI-IV 28 Sep 09:30:06 09:31:15 11° 301° (WNW) 09:32:25 437.490
CUTE-I 28 Sep 09:30:17 09:31:18 10° 301° (WNW) 09:32:18 437.470
CINEMA 3 28 Sep 09:37:18 09:41:02 33° 288° (WNW) 09:44:51 145.822/145.860
UNISAT 6 28 Sep 09:41:07 09:43:51 17° 66° (ENE) 09:46:34 437.425
GONETS M04 28 Sep 09:41:16 09:50:05 76° 278° (W) 09:59:00
CUTE 1.7 + AOD 2 28 Sep 09:48:34 09:52:29 34° 288° (WNW) 09:56:22 437.475
SEEDS 28 Sep 09:49:14 09:53:21 48° 286° (WNW) 09:57:27 437.485
Oscar 11 28 Sep 09:49:28 09:53:22 31° 97° (E) 09:57:14 145.826/435.025
CANX-2 28 Sep 09:50:03 09:53:46 29° 290° (WNW) 09:57:29 2200.000
ZACube-1 28 Sep 09:51:52 09:55:52 35° 97° (E) 09:59:56 437.345
DELFI C3 28 Sep 09:54:41 09:56:27 13° 92° (E) 09:58:13 145.870
PHONESAT 2.4 28 Sep 10:10:23 10:12:17 16° 148° (SSE) 10:14:12 2401.200-2431.200
AAUSAT CUBESAT 2 28 Sep 10:10:51 10:14:56 51° 286° (WNW) 10:18:58 437.432
HUMSAT D 28 Sep 10:12:39 10:12:48 10° 90° (E) 10:12:57 437.325/437.525
ANTELSAT 28 Sep 10:15:03 10:19:01 39° 72° (ENE) 10:22:59 437.575/2403.000
BEESAT 2 28 Sep 10:21:05 10:24:46 33° 53° (NE) 10:28:25 435.950
HO-68 28 Sep 10:27:11 10:33:28 35° 296° (WNW) 10:39:46 435.675
TIGRISAT 28 Sep 10:35:12 10:39:25 64° 75° (ENE) 10:43:37 435.000
CUBEBUG 2 28 Sep 10:42:39 10:46:10 25° 290° (WNW) 10:49:44 437.445
FUNcube-1 28 Sep 10:45:34 10:49:50 59° 286° (WNW) 10:54:11 145.935
PRISM 28 Sep 10:46:45 10:47:02 10° 269° (W) 10:47:18 437.425
DUCHIFAT 1 28 Sep 10:50:12 10:50:39 10° 63° (ENE) 10:51:07 145.980
QB50P1 28 Sep 10:51:19 10:53:09 13° 65° (ENE) 10:54:59 145.935-145.965
COMPASS 1 28 Sep 10:57:13 10:59:15 13° 295° (WNW) 11:01:18 437.405
UWE-3 28 Sep 10:59:59 11:03:29 25° 290° (WNW) 11:07:04 435.000/436.395/437.385
JAS-2 28 Sep 11:00:44 11:05:37 22° 59° (ENE) 11:10:53 435.910
BEESAT 3 28 Sep 11:02:22 11:06:05 38° 245° (WSW) 11:09:46 437.485
POPSAT HIP 1 28 Sep 11:03:51 11:06:36 17° 67° (ENE) 11:09:21 437.405
Cosmos 2499 28 Sep 11:12:48 11:17:39 19° 292° (WNW) 11:22:29 435.465 / 435.565
UNISAT 6 28 Sep 11:16:15 11:20:15 38° 261° (W) 11:24:15 437.425
NANOSAT C BR1 28 Sep 11:19:09 11:22:31 24° 69° (ENE) 11:25:54 145.865
Oscar 11 28 Sep 11:25:59 11:29:17 21° 292° (WNW) 11:32:35 145.826/435.025
DELFI C3 28 Sep 11:27:40 11:31:30 43° 287° (WNW) 11:35:17 145.870
ZACube-1 28 Sep 11:28:49 11:31:55 19° 292° (WNW) 11:35:03 437.345
QB50P2 28 Sep 11:42:11 11:46:15 51° 74° (ENE) 11:50:21 145.880/145.840
GONETS M04 28 Sep 11:44:13 11:48:31 14° 299° (WNW) 11:52:51
POLYITAN 1 28 Sep 11:44:24 11:48:28 51° 74° (ENE) 11:52:33 437.675
HUMSAT D 28 Sep 11:44:33 11:48:46 62° 285° (WNW) 11:53:00 437.325/437.525
PHONESAT 2.4 28 Sep 11:45:09 11:48:05 77° 163° (SSE) 11:51:01 2401.200-2431.200
ANTELSAT 28 Sep 11:53:17 11:55:53 16° 267° (W) 11:58:29 437.575/2403.000
BEESAT 2 28 Sep 11:59:26 12:02:20 19° 249° (WSW) 12:05:14 435.950
DX 1 28 Sep 12:21:31 12:23:22 12° 92° (E) 12:25:12 434.975-435.025
DUCHIFAT 1 28 Sep 12:21:37 12:25:46 66° 259° (WSW) 12:29:56 145.980
BUGSAT 1 28 Sep 12:22:15 12:26:12 47° 74° (ENE) 12:30:07 437.445
QB50P1 28 Sep 12:24:21 12:28:27 52° 260° (W) 12:32:34 145.935-145.965
VELOX 1 28 Sep 12:29:40 12:33:23 26° 96° (E) 12:37:03 145.980
ESTCUBE 1 28 Sep 12:31:50 12:36:20 61° 100° (E) 12:40:48 437.505/2401.250
CUBEBUG 1 28 Sep 12:32:24 12:36:26 37° 98° (E) 12:40:26 437.445
POPSAT HIP 1 28 Sep 12:38:12 12:42:05 37° 262° (W) 12:45:59 437.405
JAS-2 28 Sep 12:43:29 12:49:48 68° 259° (W) 12:57:03 435.910
AIST 2 28 Sep 12:47:06 12:51:08 42° 55° (NE) 12:55:08 435.215
50 SAT 28 Sep 12:48:36 12:52:06 40° 99° (E) 12:55:32 437.505
Oscar 19 28 Sep 12:51:04 12:55:03 23° 65° (ENE) 12:59:02 437.125/150
PCSat 28 Sep 12:51:16 12:54:57 18° 47° (NE) 12:58:35 145.827
NANOSAT C BR1 28 Sep 12:54:40 12:58:09 25° 264° (W) 13:01:37 145.865
M-CUBED/EXP-1 PRIME 28 Sep 12:59:04 13:01:42 22° 102° (ESE) 13:04:21 437.505
SPROUT 28 Sep 13:10:50 13:14:53 42° 99° (E) 13:18:55 437.525
QB50P2 28 Sep 13:20:44 13:22:20 12° 269° (W) 13:23:55 145.880/145.840
PHONESAT 2.4 28 Sep 13:21:23 13:24:17 54° 359° (N) 13:27:11 2401.200-2431.200
AISAT 28 Sep 13:21:55 13:26:19 74° 284° (WNW) 13:30:39 437.250
POLYITAN 1 28 Sep 13:23:00 13:24:32 12° 268° (W) 13:26:06 437.675
UKube-1 28 Sep 13:25:55 13:30:09 53° 101° (E) 13:34:20 .
Cosmos 2491 28 Sep 13:34:40 13:37:53 12° 75° (ENE) 13:41:05 435.465 / 435.565
YUBILEINY 28 Sep 13:35:21 13:42:39 29° 70° (ENE) 13:49:53 435.215
Gurwin Techsat 1B 28 Sep 13:51:59 13:56:54 40° 70° (ENE) 14:01:50 435.225
AUBIESAT-1 28 Sep 13:55:04 13:58:21 68° 289° (WNW) 14:01:40 437.475
DX 1 28 Sep 13:55:38 13:59:51 52° 287° (WNW) 14:04:02 434.975-435.025
BUGSAT 1 28 Sep 14:00:07 14:01:48 12° 268° (W) 14:03:28 437.445
VELOX 1 28 Sep 14:06:06 14:09:45 26° 291° (WNW) 14:13:21 145.980
Cosmos 2504 28 Sep 14:09:04 14:13:17 15° 66° (ENE) 14:17:35 435.465 / 435.565
CUBEBUG 1 28 Sep 14:09:29 14:12:25 18° 294° (WNW) 14:15:20 437.445
SO-50 28 Sep 14:10:11 14:10:43 10° 106° (ESE) 14:11:15 436.795
ESTCUBE 1 28 Sep 14:10:36 14:12:36 13° 297° (WNW) 14:14:35 437.505/2401.250
50 SAT 28 Sep 14:23:46 14:25:11 12° 294° (WNW) 14:26:36 437.505
AIST 2 28 Sep 14:26:36 14:29:15 16° 250° (WSW) 14:31:55 435.215
TISAT 1 28 Sep 14:29:06 14:33:14 62° 101° (E) 14:37:21 437.305
Oscar 19 28 Sep 14:29:10 14:34:04 42° 261° (W) 14:39:00 437.125/150
PCSat 28 Sep 14:33:28 14:38:53 71° 244° (WSW) 14:44:15 145.827
M-CUBED/EXP-1 PRIME 28 Sep 14:34:01 14:36:06 16° 296° (WNW) 14:38:11 437.505
SPROUT 28 Sep 14:47:54 14:50:27 16° 294° (WNW) 14:53:01 437.525
PHONESAT 2.4 28 Sep 14:57:32 15:00:30 84° 193° (SSW) 15:03:28 2401.200-2431.200
AO-7 28 Sep 15:02:34 15:10:11 42° 62° (ENE) 15:17:47 29.400- 29.500
UKube-1 28 Sep 15:03:39 15:05:42 13° 296° (WNW) 15:07:46 .
ITUPSAT 1 28 Sep 15:04:19 15:08:23 27° 96° (E) 15:12:26 437.325
SWISSCUBE 28 Sep 15:16:44 15:21:16 41° 99° (E) 15:25:47 437.505
ITAMSAT 1 28 Sep 15:23:11 15:28:21 82° 75° (ENE) 15:33:34 435.822/435.867
Cosmos 2491 28 Sep 15:24:19 15:33:03 76° 94° (E) 15:41:53 435.465 / 435.565
BEESAT 28 Sep 15:29:33 15:34:13 50° 100° (E) 15:38:51 436.000
YUBILEINY 28 Sep 15:31:26 15:39:53 58° 269° (W) 15:48:19 435.215
Gurwin Techsat 1B 28 Sep 15:32:46 15:36:57 24° 266° (W) 15:41:10 435.225
SO-50 28 Sep 15:45:39 15:50:30 84° 302° (WNW) 15:55:20 436.795
Cosmos 2504 28 Sep 16:00:01 16:07:32 89° 262° (W) 16:15:34 435.465 / 435.565
TISAT 1 28 Sep 16:07:21 16:08:20 11° 297° (WNW) 16:09:18 437.305
PHONESAT 2.4 28 Sep 16:34:11 16:36:20 18° 211° (SSW) 16:38:29 2401.200-2431.200
ITUPSAT 1 28 Sep 16:41:59 16:46:10 30° 291° (WNW) 16:50:20 437.325
MOZHAYETS 4 28 Sep 16:50:04 16:54:42 63° 102° (ESE) 16:59:18
AO-7 28 Sep 16:55:04 17:02:51 43° 260° (W) 17:10:39 29.400- 29.500
SWISSCUBE 28 Sep 16:55:15 16:58:45 20° 294° (WNW) 17:02:13 437.505
AIST 1 28 Sep 17:05:39 17:09:57 80° 265° (W) 17:14:11
ITAMSAT 1 28 Sep 17:07:34 17:08:24 10° 270° (W) 17:09:14 435.822/435.867
BEESAT 28 Sep 17:08:32 17:11:34 17° 296° (WNW) 17:14:35 436.000
KKS-1 28 Sep 17:10:34 17:14:59 63° 102° (ESE) 17:19:21 437.445
NOAA 15 28 Sep 17:11:39 17:14:28 15° 61° (ENE) 17:17:18 137.62
Cosmos 2491 28 Sep 17:24:19 17:30:48 22° 294° (WNW) 17:37:20 435.465 / 435.565
O/OREOS (USA 219) 28 Sep 17:26:35 17:31:09 58° 66° (ENE) 17:35:40 437.305
HORYU 2 28 Sep 17:27:10 17:31:32 69° 75° (ENE) 17:35:56 437.375
SO-50 28 Sep 17:29:28 17:31:41 13° 319° (NW) 17:33:54 436.795
CUTE-I 28 Sep 17:29:36 17:32:59 17° 63° (ENE) 17:36:22 437.470
Cubesat XI-IV 28 Sep 17:29:42 17:33:04 17° 63° (ENE) 17:36:26 437.490
GOMX 1 28 Sep 17:36:07 17:40:12 23° 68° (ENE) 17:44:09 467.674
STARS 28 Sep 17:42:17 17:46:39 67° 103° (ESE) 17:50:58 437.465
BRITE-PL 28 Sep 17:48:33 17:54:10 66° 75° (ENE) 17:59:43 437.365/2234.400
DOVE 4 28 Sep 17:55:40 17:58:09 14° 65° (ENE) 18:00:34 437.250
LilacSat-2 28 Sep 17:55:58 17:58:50 21° 70° (ENE) 18:01:43 437.200
Cosmos 2504 28 Sep 17:56:20 17:59:53 14° 280° (W) 18:03:31 435.465 / 435.565
CUBESAT XI-V 28 Sep 18:11:45 18:16:24 60° 101° (E) 18:20:59 437.345
NOAA 18 28 Sep 18:14:55 18:19:55 38° 68° (ENE) 18:24:56 137.9125
MOZHAYETS 4 28 Sep 18:29:11 18:31:17 13° 297° (WNW) 18:33:25
CUSAT 1 28 Sep 18:31:01 18:35:51 23° 82° (E) 18:41:24 437.405
NOAA 15 28 Sep 18:48:19 18:53:36 71° 257° (WSW) 18:58:56 137.62
KKS-1 28 Sep 18:49:21 18:50:58 12° 297° (WNW) 18:52:36 437.445
CINEMA 3 28 Sep 19:01:54 19:04:31 16° 67° (ENE) 19:07:04 145.822/145.860
CUTE 1.7 + AOD 2 28 Sep 19:06:32 19:07:58 12° 64° (ENE) 19:09:24 437.475
HO-68 28 Sep 19:06:56 19:12:50 29° 62° (ENE) 19:18:44 435.675
CANX-2 28 Sep 19:07:09 19:09:18 14° 65° (ENE) 19:11:28 2200.000
CUTE-I 28 Sep 19:07:18 19:12:31 59° 259° (W) 19:17:46 437.470
Cubesat XI-IV 28 Sep 19:07:23 19:12:37 59° 259° (W) 19:17:53 437.490
O/OREOS (USA 219) 28 Sep 19:08:08 19:09:59 12° 262° (W) 19:11:50 437.305
Cosmos 2499 28 Sep 19:09:13 19:14:48 21° 69° (ENE) 19:20:37 435.465 / 435.565
GOMX 1 28 Sep 19:12:50 19:17:59 44° 262° (W) 19:22:56 467.674
STARS 28 Sep 19:21:14 19:22:24 11° 297° (WNW) 19:23:35 437.465
BRITE-PL 28 Sep 19:29:32 19:32:59 16° 269° (W) 19:36:25 437.365/2234.400
LilacSat-2 28 Sep 19:30:00 19:33:00 23° 265° (W) 19:36:02 437.200
DOVE 4 28 Sep 19:30:21 19:35:22 64° 259° (W) 19:40:07 437.250
RS-15 28 Sep 19:33:38 19:44:17 46° 108° (ESE) 19:55:26 29.354- 29.394
STRAND 1 28 Sep 19:33:45 19:37:26 19° 93° (E) 19:41:04 437.568
AO-85 28 Sep 19:50:40 19:51:32 10° 106° (ESE) 19:52:24 145.980
CUBESAT XI-V 28 Sep 19:50:52 19:53:14 14° 296° (WNW) 19:55:34 437.345
GONETS M04 28 Sep 19:53:35 20:02:08 52° 77° (ENE) 20:10:34
NOAA 18 28 Sep 19:56:06 20:00:37 26° 264° (W) 20:05:11 137.9125
CUBEBUG 2 28 Sep 20:03:37 20:06:29 18° 68° (ENE) 20:09:20 437.445
DANDE 28 Sep 20:08:20 20:13:13 53° 92° (E) 20:19:42 436.750
COMPASS 1 28 Sep 20:09:30 20:13:02 27° 70° (ENE) 20:16:36 437.405
CUSAT 1 28 Sep 20:10:57 20:17:03 59° 284° (WNW) 20:24:33 437.405
UWE-3 28 Sep 20:19:59 20:22:48 18° 68° (ENE) 20:25:37 435.000/436.395/437.385
CINEMA 3 28 Sep 20:37:01 20:41:19 45° 261° (W) 20:45:29 145.822/145.860
SEEDS 28 Sep 20:38:53 20:43:04 88° 247° (WSW) 20:47:20 437.485
CUTE 1.7 + AOD 2 28 Sep 20:39:06 20:43:15 59° 260° (W) 20:47:29 437.475
CANX-2 28 Sep 20:40:38 20:44:43 48° 261° (W) 20:48:51 2200.000
ISS 28 Sep 20:41:06 20:44:20 74° 322° (NW) 20:47:37 145.825
Oscar 11 28 Sep 20:43:18 20:46:31 21° 68° (ENE) 20:49:45 145.826/435.025
ZACube-1 28 Sep 20:46:56 20:50:10 22° 69° (ENE) 20:53:23 437.345
HO-68 28 Sep 20:53:11 21:00:09 54° 259° (W) 21:07:09 435.675
AAUSAT CUBESAT 2 28 Sep 20:58:59 21:03:08 83° 77° (ENE) 21:07:20 437.432
Cosmos 2499 28 Sep 21:00:54 21:08:28 71° 266° (W) 21:16:39 435.465 / 435.565
STRAND 1 28 Sep 21:11:52 21:16:48 46° 289° (WNW) 21:21:41 437.568
AO-85 28 Sep 21:26:08 21:31:24 89° 98° (E) 21:36:20 145.980
JUGNU 28 Sep 21:28:26 21:30:16 11° 176° (S) 21:32:06 437.505
CUBEBUG 2 28 Sep 21:39:03 21:42:52 33° 263° (W) 21:46:40 437.445
FUNcube-1 28 Sep 21:39:26 21:43:34 87° 77° (ENE) 21:47:43 145.935
RS-15 28 Sep 21:45:11 21:56:31 54° 311° (NW) 22:08:29 29.354- 29.394
COMPASS 1 28 Sep 21:45:17 21:48:33 22° 266° (W) 21:51:50 437.405
GONETS M04 28 Sep 21:51:03 21:58:31 32° 276° (W) 22:05:56
DANDE 28 Sep 21:52:34 21:56:40 21° 297° (WNW) 22:01:38 436.750
UWE-3 28 Sep 21:55:15 21:59:01 33° 263° (W) 22:02:48 435.000/436.395/437.385
CUSAT 1 28 Sep 22:00:14 22:01:00 10° 306° (NW) 22:01:47 437.405
DELFI C3 28 Sep 22:11:20 22:15:19 83° 77° (ENE) 22:19:22 145.870
Oscar 11 28 Sep 22:18:36 22:22:26 31° 263° (W) 22:26:18 145.826/435.025
ISS 28 Sep 22:19:24 22:21:18 14° 340° (NNW) 22:23:13 145.825
ZACube-1 28 Sep 22:22:49 22:26:19 26° 264° (W) 22:29:49 437.345
PRISM 28 Sep 22:25:18 22:29:25 67° 285° (WNW) 22:33:28 437.425
TIGRISAT 28 Sep 22:29:06 22:31:39 15° 93° (E) 22:34:13 435.000
HUMSAT D 28 Sep 22:34:01 22:38:04 72° 77° (ENE) 22:42:11 437.325/437.525
Cosmos 2499 28 Sep 22:59:39 23:00:17 10° 283° (WNW) 23:00:55 435.465 / 435.565
UNISAT 6 28 Sep 23:08:39 23:12:54 44° 99° (E) 23:17:13 437.425
AO-85 28 Sep 23:09:40 23:12:26 14° 317° (NW) 23:15:06 145.980
JUGNU 28 Sep 23:16:57 23:18:21 11° 186° (S) 23:19:45 437.505
DX 1 28 Sep 23:17:43 23:17:59 10° 62° (ENE) 23:18:17 434.975-435.025
50 SAT 28 Sep 23:24:58 23:27:06 15° 67° (ENE) 23:29:15 437.505
VELOX 1 28 Sep 23:25:54 23:29:12 21° 67° (ENE) 23:32:31 145.980
CUBEBUG 1 28 Sep 23:27:01 23:30:43 27° 69° (ENE) 23:34:26 437.445
ESTCUBE 1 28 Sep 23:29:43 23:34:02 46° 73° (ENE) 23:38:24 437.505/2401.250
M-CUBED/EXP-1 PRIME 28 Sep 23:43:34 23:47:09 29° 67° (ENE) 23:50:31 437.505
ANTELSAT 28 Sep 23:43:53 23:48:19 74° 284° (WNW) 23:52:50 437.575/2403.000
JAS-2 28 Sep 23:55:24 00:01:26 24° 90° (E) 00:07:10 435.910
SPROUT 29 Sep 00:03:07 00:06:43 27° 70° (ENE) 00:10:18 437.525
RS-15 29 Sep 00:04:06 00:12:48 22° 341° (NNW) 00:21:44 29.354- 29.394
TIGRISAT 29 Sep 00:04:18 00:08:31 46° 287° (WNW) 00:12:49 435.000
DUCHIFAT 1 29 Sep 00:07:44 00:10:53 21° 95° (E) 00:14:03 145.980
QB50P1 29 Sep 00:10:43 00:14:15 26° 96° (E) 00:17:48 145.935-145.965
SRMSAT 29 Sep 00:14:49 00:16:50 12° 178° (S) 00:18:50 437.500
AISAT 29 Sep 00:17:21 00:21:49 81° 75° (ENE) 00:26:16 437.250
SO-50 29 Sep 00:18:40 00:23:11 56° 56° (NE) 00:27:33 436.795
UKube-1 29 Sep 00:18:55 00:22:53 37° 71° (ENE) 00:26:53 .
POPSAT HIP 1 29 Sep 00:24:04 00:27:58 36° 98° (E) 00:31:52 437.405
AUBIESAT-1 29 Sep 00:39:05 00:43:10 73° 253° (WSW) 00:46:58 437.475
NANOSAT C BR1 29 Sep 00:39:29 00:43:36 53° 100° (E) 00:47:42 145.865
UNISAT 6 29 Sep 00:46:30 00:49:15 16° 294° (WNW) 00:52:03 437.425
DX 1 29 Sep 00:49:10 00:53:32 74° 258° (WSW) 00:57:55 434.975-435.025
BEESAT 3 29 Sep 00:51:00 00:54:42 45° 116° (ESE) 00:58:28 437.485
50 SAT 29 Sep 00:57:04 01:00:19 31° 263° (W) 01:03:36 437.505
VELOX 1 29 Sep 01:01:23 01:05:25 34° 262° (W) 01:09:30 145.980
CUBEBUG 1 29 Sep 01:03:16 01:06:55 25° 264° (W) 01:10:35 437.445
QB50P2 29 Sep 01:03:55 01:08:07 67° 285° (WNW) 01:12:18 145.880/145.840
POLYITAN 1 29 Sep 01:06:07 01:10:18 67° 286° (WNW) 01:14:30 437.675
ESTCUBE 1 29 Sep 01:08:24 01:11:04 15° 268° (W) 01:13:43 437.505/2401.250
M-CUBED/EXP-1 PRIME 29 Sep 01:18:32 01:21:38 20° 259° (WSW) 01:24:35 437.505
TISAT 1 29 Sep 01:19:13 01:23:05 37° 72° (ENE) 01:26:57 437.305
ISS 29 Sep 01:34:38 01:36:37 15° 21° (NNE) 01:38:38 145.825
Cosmos 2491 29 Sep 01:37:00 01:44:54 35° 72° (ENE) 01:52:43 435.465 / 435.565
JAS-2 29 Sep 01:39:09 01:46:57 68° 288° (WNW) 01:54:19 435.910
SPROUT 29 Sep 01:39:10 01:42:35 23° 265° (W) 01:46:01 437.525
BUGSAT 1 29 Sep 01:40:22 01:44:23 79° 284° (WNW) 01:48:24 437.445
DUCHIFAT 1 29 Sep 01:42:57 01:46:35 29° 289° (WNW) 01:50:13 145.980
QB50P1 29 Sep 01:46:32 01:49:55 24° 291° (WNW) 01:53:17 145.935-145.965
BEESAT 2 29 Sep 01:48:32 01:52:27 80° 299° (WNW) 01:56:27 435.950
UKube-1 29 Sep 01:56:07 01:59:02 18° 266° (W) 02:01:57 .
POPSAT HIP 1 29 Sep 02:00:39 02:03:27 18° 293° (WNW) 02:06:16 437.405
SO-50 29 Sep 02:00:48 02:03:06 14° 252° (WSW) 02:05:23 436.795
ITUPSAT 1 29 Sep 02:09:48 02:13:46 27° 68° (ENE) 02:17:46 437.325
Gurwin Techsat 1B 29 Sep 02:10:32 02:14:02 18° 92° (E) 02:17:32 435.225
NANOSAT C BR1 29 Sep 02:17:04 02:18:51 12° 296° (WNW) 02:20:38 145.865
SWISSCUBE 29 Sep 02:21:42 02:26:08 40° 71° (ENE) 02:30:35 437.505
RS-15 29 Sep 02:22:58 02:31:49 22° 18° (NNE) 02:40:39 29.354- 29.394
BEESAT 3 29 Sep 02:30:06 02:32:36 16° 313° (NW) 02:35:08 437.485
BEESAT 29 Sep 02:34:24 02:38:57 49° 72° (ENE) 02:43:34 436.000
YUBILEINY 29 Sep 02:34:37 02:42:16 35° 85° (E) 02:49:51 435.215
Oscar 19 29 Sep 02:41:47 02:46:58 77° 103° (ESE) 02:52:05 437.125/150
AIST 2 29 Sep 02:45:39 02:47:13 12° 108° (ESE) 02:48:47 435.215
Cosmos 2504 29 Sep 02:50:21 02:52:04 11° 78° (ENE) 02:53:45 435.465 / 435.565
TISAT 1 29 Sep 02:56:12 02:58:50 16° 267° (W) 03:01:29 437.305
AO-7 29 Sep 03:09:20 03:11:42 11° 88° (E) 03:14:04 29.400- 29.500
ISS 29 Sep 03:10:16 03:13:34 79° 39° (NE) 03:16:51 145.825
JAS-2 29 Sep 03:26:52 03:30:27 14° 306° (NW) 03:34:01 435.910
PCSat 29 Sep 03:32:19 03:35:53 18° 105° (ESE) 03:39:29 145.827
Cosmos 2491 29 Sep 03:33:33 03:41:55 49° 271° (W) 03:50:13 435.465 / 435.565
ITAMSAT 1 29 Sep 03:37:47 03:42:27 32° 97° (E) 03:47:05 435.822/435.867
ITUPSAT 1 29 Sep 03:47:21 03:51:29 29° 263° (W) 03:55:39 437.325
Gurwin Techsat 1B 29 Sep 03:49:06 03:54:17 53° 288° (WNW) 03:59:26 435.225
MOZHAYETS 4 29 Sep 03:50:20 03:54:44 49° 73° (ENE) 03:59:10
SWISSCUBE 29 Sep 04:00:40 04:04:03 19° 266° (W) 04:07:28 437.505
KKS-1 29 Sep 04:06:59 04:11:16 48° 73° (ENE) 04:15:33 437.445
BEESAT 29 Sep 04:14:07 04:16:59 16° 267° (W) 04:19:52 436.000
AIST 2 29 Sep 04:21:10 04:25:11 55° 303° (WNW) 04:29:15 435.215
Oscar 19 29 Sep 04:23:22 04:25:35 13° 299° (WNW) 04:27:48 437.125/150
YUBILEINY 29 Sep 04:30:19 04:38:43 48° 284° (WNW) 04:47:08 435.215
RS-15 29 Sep 04:36:13 04:48:16 53° 49° (NE) 05:00:01 29.354- 29.394
Cosmos 2504 29 Sep 04:36:47 04:44:13 81° 95° (E) 04:51:24 435.465 / 435.565
STARS 29 Sep 04:37:17 04:41:30 48° 73° (ENE) 04:45:44 437.465
AO-7 29 Sep 04:57:25 05:05:44 72° 106° (ESE) 05:14:00 29.400- 29.500
CUSAT 1 29 Sep 05:06:58 05:11:54 18° 61° (ENE) 05:16:20 437.405
CUBESAT XI-V 29 Sep 05:13:18 05:17:49 49° 73° (ENE) 05:22:22 437.345
PCSat 29 Sep 05:13:28 05:18:47 57° 301° (WNW) 05:24:08 145.827
ITAMSAT 1 29 Sep 05:17:20 05:21:48 29° 293° (WNW) 05:26:15 435.822/435.867
HORYU 2 29 Sep 05:20:54 05:23:21 14° 93° (E) 05:25:47 437.375
MOZHAYETS 4 29 Sep 05:29:37 05:32:09 15° 268° (W) 05:34:42
AIST 1 29 Sep 05:32:57 05:37:18 64° 95° (E) 05:41:38
KKS-1 29 Sep 05:45:40 05:48:04 14° 268° (W) 05:50:27 437.445
BRITE-PL 29 Sep 05:56:39 06:00:09 21° 92° (E) 06:03:28 437.365/2234.400
AO-85 29 Sep 05:59:54 06:03:53 45° 54° (NE) 06:07:38 145.980
STARS 29 Sep 06:15:53 06:18:06 14° 268° (W) 06:20:18 437.465
Cosmos 2504 29 Sep 06:34:13 06:38:24 16° 294° (WNW) 06:42:35 435.465 / 435.565
NOAA 18 29 Sep 06:39:14 06:42:48 17° 93° (E) 06:46:21 137.9125
CUSAT 1 29 Sep 06:47:23 06:55:04 83° 263° (W) 07:01:16 437.405
DANDE 29 Sep 06:47:29 06:55:35 49° 74° (ENE) 07:02:58 436.750
STRAND 1 29 Sep 06:48:14 06:52:18 25° 66° (ENE) 06:56:24 437.568
RS-15 29 Sep 06:49:08 07:00:44 50° 251° (WSW) 07:12:01 29.354- 29.394
AO-7 29 Sep 06:51:21 06:57:45 26° 304° (NW) 07:04:09 29.400- 29.500
CUBESAT XI-V 29 Sep 06:52:38 06:55:26 16° 268° (W) 06:58:15 437.345
HORYU 2 29 Sep 06:55:51 07:00:08 47° 287° (WNW) 07:04:25 437.375
LilacSat-2 29 Sep 07:03:49 07:07:26 38° 98° (E) 07:11:02 437.200
NOAA 15 29 Sep 07:05:00 07:10:09 48° 100° (E) 07:15:13 137.62
AIST 1 29 Sep 07:14:49 07:15:19 10° 291° (WNW) 07:15:49
GOMX 1 29 Sep 07:16:29 07:20:49 62° 100° (E) 07:24:57 467.674
CUTE-I 29 Sep 07:25:36 07:30:56 63° 102° (ESE) 07:36:15 437.470
Cubesat XI-IV 29 Sep 07:25:54 07:31:13 63° 102° (ESE) 07:36:32 437.490
DOVE 4 29 Sep 07:31:08 07:34:57 34° 97° (E) 07:38:43 437.250
BRITE-PL 29 Sep 07:34:30 07:38:45 33° 290° (WNW) 07:42:44 437.365/2234.400
O/OREOS (USA 219) 29 Sep 07:37:07 07:41:39 90° 292° (WNW) 07:46:16 437.305
AO-85 29 Sep 07:41:55 07:43:47 13° 252° (WSW) 07:45:38 145.980
Cosmos 2499 29 Sep 07:47:39 07:51:09 14° 80° (E) 07:54:38 435.465 / 435.565
NOAA 18 29 Sep 08:18:25 08:23:47 57° 288° (WNW) 08:29:07 137.9125
HO-68 29 Sep 08:22:37 08:28:55 33° 97° (E) 08:35:11 435.675
SEEDS 29 Sep 08:25:13 08:28:02 17° 93° (E) 08:30:50 437.485
CUTE 1.7 + AOD 2 29 Sep 08:25:46 08:29:21 25° 95° (E) 08:32:55 437.475
STRAND 1 29 Sep 08:26:35 08:31:16 37° 262° (W) 08:35:59 437.568
CANX-2 29 Sep 08:27:07 08:30:57 30° 96° (E) 08:34:45 2200.000
DANDE 29 Sep 08:30:40 08:38:05 37° 273° (W) 08:44:54 436.750
CUSAT 1 29 Sep 08:32:29 08:35:29 13° 284° (WNW) 08:38:20 437.405
CINEMA 3 29 Sep 08:32:37 08:36:37 42° 99° (E) 08:40:42 145.822/145.860
LilacSat-2 29 Sep 08:39:20 08:41:23 14° 293° (WNW) 08:43:26 437.200
AAUSAT CUBESAT 2 29 Sep 08:44:06 08:46:24 14° 92° (E) 08:48:40 437.432
NOAA 15 29 Sep 08:45:42 08:49:32 21° 296° (WNW) 08:53:20 137.62
GONETS M04 29 Sep 08:52:13 09:00:51 62° 92° (E) 09:09:33
GOMX 1 29 Sep 08:57:13 08:58:17 11° 298° (WNW) 08:59:20 467.674
